#timestamp,LO_Frequency,Hit,StdDev 
1651093215.3,286046998.7,N
1651093235.1,286047001.2,N
1651093236.0,286047001.2,N
1651093255.8,286047001.1,N
1651093275.7,286047000.6,N
1651093295.5,286047000.4,N
1651093315.3,286047000.6,N
1651093335.2,286047001.2,N
1651093355.0,286046998.1,N
1651093355.9,286046998.1,N
1651093375.8,286047000.8,N
1651093395.6,286046999.3,N
1651093415.4,286046999.5,N
1651093435.3,286046999.0,N
1651093455.1,286046998.9,N
1651093475.8,286046998.7,N
1651093495.7,286047001.2,N
1651093515.5,286047000.8,N
1651093535.4,286047000.6,N
1651093555.2,286047001.5,N
1651093575.0,286047001.8,N
1651093575.9,286047001.8,N
1651093595.8,286047002.8,N
1651093615.6,286047000.2,N
1651093635.4,286047000.5,N
1651093655.3,286047000.1,N
1651093675.1,286047008.8,Y
1651093695.9,286047013.0,P
1651093715.7,286047010.6,N
1651093735.5,286047008.1,N
1651093755.4,286047004.6,N
1651093775.2,286047003.3,N
1651093795.0,286047001.8,N
1651093795.9,286047001.8,N
1651093815.8,286047001.8,N
1651093835.6,286047001.6,N
1651093855.5,286047004.1,N
1651093875.3,286047004.0,N
1651093895.2,286047004.1,N
1651093915.9,286047003.2,N
1651093935.7,286047003.1,N
1651093955.6,286047003.2,N
1651093975.4,286047003.2,N
1651093995.2,286047003.1,N
1651094015.1,286047003.5,N
1651094016.0,286047003.5,N
1651094035.8,286047004.4,N
1651094055.7,286047002.6,N
1651094075.5,286047002.6,N
1651094095.3,286047000.1,N
1651094115.2,286047002.8,N
1651094135.0,286047002.6,N
1651094135.9,286047002.6,N
1651094155.8,286047002.3,N
1651094175.6,286046999.7,N
1651094195.4,286047002.6,N
1651094215.3,286047000.1,N
1651094235.1,286046999.7,N
1651094255.9,286047000.5,N
1651094275.7,286047001.0,N
1651094295.5,286047000.9,N
1651094315.4,286047002.4,N
1651094335.2,286047000.1,N
1651094355.1,286046999.8,N
1651094356.0,286046999.8,N
1651094375.8,286047002.7,N
1651094395.6,286047002.8,N
1651094415.5,286046999.9,N
1651094435.3,286046999.9,N
1651094455.2,286047002.8,N
1651094475.9,286047002.3,N
1651094495.7,286047002.8,N
1651094515.6,286047002.3,N
1651094535.4,286047002.6,N
1651094555.3,286047006.0,Y
1651094575.1,286046999.7,P
1651094576.0,286046999.7,N
1651094595.8,286046999.8,N
1651094615.7,286047000.6,N
1651094635.5,286047000.5,N
1651094655.3,286047000.9,N
1651094675.2,286047001.1,N
1651094695.0,286047001.1,N
1651094695.9,286047001.1,N
1651094715.8,286047000.4,N
1651094735.6,286046998.1,Y
1651094755.4,286047001.0,P
1651094775.3,286047000.9,P
1651094795.1,286047001.1,P
1651094815.9,286047002.4,Y
1651094835.7,286047001.0,P
1651094855.5,286047001.2,P
1651094875.4,286047001.1,P
1651094895.2,286046998.1,Y
1651094915.1,286046999.3,P
1651094916.0,286046999.3,N
1651094935.8,286046999.3,N
1651094955.6,286046999.0,N
1651094975.5,286046996.7,Y
1651094995.3,286046996.6,P
1651095015.2,286046998.5,N
1651095035.9,286046998.8,N
1651095055.7,286047000.8,N
1651095075.6,286047000.3,N
1651095095.4,286046999.9,N
1651095115.2,286047000.5,N
1651095135.1,286046998.9,N
1651095136.0,286046998.9,N
1651095155.8,286046998.7,N
1651095175.7,286046999.7,N
1651095195.5,286046998.3,N
1651095215.3,286046998.7,N
1651095235.2,286046998.6,N
1651095255.0,286046998.7,N
1651095255.9,286046998.7,N
1651095275.7,286046998.9,N
1651095295.6,286046998.5,N
1651095315.4,286047000.7,N
1651095335.3,286047000.8,N
1651095355.1,286047000.4,N
1651095356.0,286047000.4,N
1651095375.8,286047000.7,N
1651095395.7,286047001.2,N
1651095415.5,286046998.8,N
1651095435.3,286047001.0,N
1651095455.2,286046998.2,N
1651095475.0,286046998.7,N
1651095475.9,286046998.7,N
1651095495.8,286046998.6,N
1651095515.6,286046998.9,N
1651095535.4,286046999.4,N
1651095555.3,286046999.0,N
1651095575.1,286046996.5,Y
1651095595.9,286046999.4,P
1651095615.7,286046998.4,P
1651095635.5,286046998.9,N
1651095655.4,286046999.1,N
1651095675.2,286046998.1,Y
1651095695.0,286047000.6,P
1651095696.0,286047000.6,N
1651095715.8,286046998.5,N
1651095735.6,286047001.2,N
1651095755.5,286046998.9,N
1651095775.3,286046999.3,N
1651095795.1,286046998.1,N
1651095815.9,286047001.1,N
1651095835.7,286046998.7,N
1651095855.6,286046998.1,N
1651095875.4,286047001.0,N
1651095895.2,286047001.1,N
1651095915.1,286047001.1,N
1651095916.0,286047001.1,N
1651095935.8,286047000.7,N
1651095955.7,286047000.7,N
1651095975.5,286047000.2,N
1651095995.3,286046998.5,N
1651096015.2,286047002.4,N
1651096035.0,286047002.3,N
1651096035.9,286047002.3,N
1651096055.7,286046999.7,N
1651096075.6,286047000.2,N
1651096095.4,286047001.9,N
1651096115.3,286046999.7,N
1651096135.1,286047000.5,N
1651096155.8,286047001.2,N
1651096175.7,286047001.0,N
1651096195.5,286047000.1,N
1651096215.3,286046999.7,N
1651096235.2,286047002.4,N
1651096255.0,286047002.5,N
1651096255.9,286047002.5,N
1651096275.8,286047001.9,N
1651096295.6,286047002.5,N
1651096315.4,286047000.1,N
1651096335.3,286047002.5,N
1651096355.1,286047002.1,N
1651096375.9,286047002.4,N
1651096395.7,286047000.2,N
1651096415.5,286047002.2,N
1651096435.4,286047002.2,N
1651096455.2,286047002.8,N
1651096475.0,286047002.7,N
1651096475.9,286047002.7,N
1651096495.8,286047000.1,N
1651096515.6,286046999.8,N
1651096535.5,286047002.5,N
1651096555.3,286047000.4,N
1651096575.1,286047000.7,N
1651096595.9,286047000.0,N
1651096615.7,286047002.3,N
1651096635.5,286047000.3,N
1651096655.4,286047000.5,N
1651096675.2,286047000.7,N
1651096695.1,286047000.4,N
1651096696.0,286047000.4,N
1651096715.8,286047000.3,N
1651096735.6,286047000.8,N
1651096755.5,286047000.3,N
1651096775.3,286047000.5,N
1651096795.1,286047002.2,N
